sat.trackr.live / text

‹ back to catalog

STARLINK-35540

NORAD 66151 · 2025-240F

PAYLOAD ACTIVE UNKNOWN

§ Identity

Operator
Country
US
Launch date
2025-10-25
Launch site
AFWTR
Launch vehicle
Mass (kg)
RCS (m²)

Purposes: comms

External: N2YO · Heavens-Above · Gunter

§ Orbital elements

Epoch: 2026-09-20T22:33:48.210048Z

Period
93.85 min
Inclination
53.1569°
Eccentricity
0.0002009
Mean motion
15.34393627 rev/d
Perigee alt
461.3 km
Apogee alt
464.1 km
Semi-major
6,840.9 km
B*
5.3340e-4
RAAN
231.5342°
Arg perigee
90.5315°
Mean anomaly
269.5918°
Rev number
5,194

§ Raw data

STARLINK-355401 66151U 25240F   26263.94014132  .00017685  00000+0  53340-3 0  99992 66151  53.1569 231.5342 0002009  90.5315 269.5918 15.34393627 51946

JSON: /api/v1/satellites/66151 · /tle

For live sub-satellite position, see the globe view (requires WebGL).

§ Visibility from observer

Set your observer location to see the next 7 days of passes ≥ 10°. The values pass through the URL so the page stays shareable.

No JS? Fill the form by hand. The geolocation button needs JavaScript.